Vernal, UT

3:11 AM MST on January 22, 2017 (GMT -0700)
Vernal

Weather History for KVEL - September, 2013

Change the Weather History Date:

Thursday, September 19, 2013

  Actual Average Record
Temperature  
Mean Temperature 56 °F 59 °F  
Max Temperature 69 °F 73 °F 89 °F (1962)
Min Temperature 42 °F 44 °F 23 °F (1945)
Degree Days  
Heating Degree Days 9 7  
Month to date heating degree days 17 70  
Since 1 July heating degree days 19 86  
Cooling Degree Days 0 0  
Month to date cooling degree days 70 20  
Year to date cooling degree days 787 509  
Growing Degree Days 5 (Base 50)    
Moisture  
Dew Point 32 °F    
Average Humidity 47    
Maximum Humidity 70    
Minimum Humidity 24    
Precipitation  
Precipitation 0.00 in 0.04 in 0.68 in (2004)
Month to date precipitation 1.46 0.65  
Year to date precipitation 6.29 6.26  
Sea Level Pressure  
Sea Level Pressure 30.01 in    
Wind  
Wind Speed 4 mph (NNW)    
Max Wind Speed 16 mph    
Max Gust Speed 20 mph    
Visibility 10 miles    
Events      
T = Trace of Precipitation, MM = Missing Value Source: NWS Daily Summary

Daily Weather History Graph

Daily Weather History Graph

Search for Another Location

Airport or City:

Trip Planner

Search our weather history database for the weather conditions in past years. The results will help you decide how hot, cold, wet, or windy it might be!

Date:

Astronomy

Sep. 19, 2013 Rise Set
Actual Time 7:02 AM MDT 7:19 PM MDT
Civil Twilight 6:35 AM MDT 7:46 PM MDT
Nautical Twilight 6:03 AM MDT 8:18 PM MDT
Astronomical Twilight 5:31 AM MDT 8:51 PM MDT
Moon 7:19 PM MDT (9/19) 7:16 AM MDT (9/19)
Length of Visible Light 13h 11m
Length of Day
12h 16m
Full, 100% of the Moon is Illuminated
Sep 19
Full
Sep 26
Last Quarter
Oct 4
New
Oct 11
First Quarter
Oct 18
Full

Hourly Weather History & Observations

Time (MDT) Temp. Windchill Dew Point Humidity Pressure Visibility Wind Dir Wind Speed Gust Speed Precip Events Conditions
12:53 AM 55.9 °F - 27.0 °F 33% 29.87 in 10.0 mi ENE 11.5 mph - N/A   Clear
1:53 AM 55.0 °F - 27.0 °F 34% 29.90 in 10.0 mi ENE 11.5 mph - N/A   Clear
2:53 AM 53.1 °F - 30.0 °F 41% 29.91 in 10.0 mi NNE 9.2 mph - N/A   Clear
3:53 AM 51.1 °F - 30.0 °F 44% 29.94 in 10.0 mi ENE 3.5 mph - N/A   Clear
4:53 AM 50.0 °F - 30.9 °F 48% 29.96 in 10.0 mi NNE 3.5 mph - N/A   Clear
5:53 AM 45.0 °F 43.5 °F 33.1 °F 63% 29.99 in 10.0 mi WSW 3.5 mph - N/A   Clear
6:53 AM 42.1 °F 38.4 °F 34.0 °F 73% 30.03 in 10.0 mi West 5.8 mph - N/A   Clear
7:53 AM 48.9 °F - 34.0 °F 56% 30.06 in 10.0 mi NNE 4.6 mph - N/A   Clear
8:53 AM 54.0 °F - 32.0 °F 43% 30.06 in 10.0 mi Calm Calm - N/A   Clear
9:53 AM 57.9 °F - 32.0 °F 37% 30.06 in 10.0 mi Calm Calm - N/A   Clear
10:53 AM 60.1 °F - 33.1 °F 36% 30.07 in 10.0 mi South 5.8 mph - N/A   Clear
11:53 AM 61.0 °F - 30.9 °F 32% 30.06 in 10.0 mi Calm Calm - N/A   Clear
12:53 PM 63.0 °F - 30.0 °F 29% 30.04 in 10.0 mi South 5.8 mph - N/A   Clear
1:53 PM 64.9 °F - 30.9 °F 28% 30.03 in 10.0 mi Calm Calm - N/A   Clear
2:53 PM 66.9 °F - 30.9 °F 26% 30.02 in 10.0 mi South 4.6 mph - N/A   Clear
3:53 PM 66.9 °F - 33.1 °F 28% 30.01 in 10.0 mi Variable 4.6 mph - N/A   Clear
4:53 PM 68.0 °F - 30.0 °F 24% 30.00 in 10.0 mi North 3.5 mph - N/A   Clear
5:53 PM 66.0 °F - 30.9 °F 27% 30.01 in 10.0 mi Variable 3.5 mph - N/A   Clear
6:53 PM 66.0 °F - 32.0 °F 28% 30.02 in 10.0 mi Calm Calm - N/A   Clear
7:53 PM 60.1 °F - 37.0 °F 42% 30.02 in 10.0 mi Calm Calm - N/A   Clear
8:53 PM 55.9 °F - 37.9 °F 51% 30.04 in 10.0 mi NW 5.8 mph - N/A   Clear
9:53 PM 53.1 °F - 37.9 °F 57% 30.04 in 10.0 mi WNW 5.8 mph - N/A   Clear
10:53 PM 52.0 °F - 37.9 °F 59% 30.05 in 10.0 mi WNW 4.6 mph - N/A   Clear
11:53 PM 51.1 °F - 37.0 °F 59% 30.05 in 10.0 mi WNW 5.8 mph - N/A   Clear